NWS Melbourne » East Central Florida Hourly Weather Roundup

 

ASUS42 KMLB 251311
RWRMLB
HOURLY WEATHER ROUNDUP AROUND FLORIDA
NATIONAL WEATHER SERVICE OFFICE MELBOURNE FL
900 AM EDT MON JUL 25 2016
  
CITY           SKY/WX    TMP DP  RH WIND       PRES   REMARKS
MELBOURNE      SUNNY     84  72  67 S5        30.08R                  
FORT PIERCE    SUNNY     82  74  76 CALM      30.09R                  
ORLANDO INTL   MOSUNNY   81  72  74 CALM      30.09R                  
DAYTONA BEACH  MOSUNNY   82  73  74 CALM      30.09R                  
VERO BEACH     SUNNY     82  73  74 VRB3      30.09R                  
$$
...ELSEWHERE ACROSS CENTRAL FLORIDA...
  
CITY           SKY/WX    TMP DP  RH WIND       PRES   REMARKS
PATRICK AFB    SUNNY     84  73  69 NE5       30.08R                  
KSC            SUNNY     82  73  74 VRB1      30.08R                  
CAPE CANAVERAL SUNNY     83  73  70 VRB2      30.07R                  
TITUSVILLE     MOSUNNY   81  75  83 VRB3      30.09R                  
ORLANDO EXEC   SUNNY     80  73  79 S3        30.09R                  
LEESBURG       SUNNY     81  73  76 S7        30.09R                  
THE VILLAGES     N/A     81  75  83 CALM      29.99S                  
SANFORD        SUNNY     80  73  79 SE5       30.09R                  
NEW SMYRNA BCH SUNNY     81  73  78 S5        30.10R                  
ORMOND BEACH   SUNNY     81  72  74 CALM      30.09R                  
WINTER HAVEN   SUNNY     80  72  76 VRB3      30.10R                  
KISSIMMEE      MOSUNNY   81  76  84 S3        30.10R                  
OKEECHOBEE     SUNNY     79  73  83 E3        30.09S                  
TAMPA          MOSUNNY   81  75  82 SE6       30.08R                  
$$
...NORTHERN FLORIDA...
  
CITY           SKY/WX    TMP DP  RH WIND       PRES   REMARKS
PALM COAST     SUNNY     79  72  78 CALM      30.09R                  
ST AUGUSTINE   SUNNY     81  72  74 CALM      30.10R                  
OCALA          SUNNY     79  70  73 S8        30.09R                  
GAINESVILLE    SUNNY     79  72  79 SE6       30.09R                  
JACKSONVILLE   MOSUNNY   82  73  74 CALM      30.09R                  
TALLAHASSEE    MOSUNNY   81  75  82 E5        30.06R                  
$$
...ALONG THE SOUTHEAST COAST TO THE KEYS...
  
CITY           SKY/WX    TMP DP  RH WIND       PRES   REMARKS
STUART         MOSUNNY   84  75  74 E5        30.09R                  
WEST PALM BCH  MOSUNNY   85  73  67 SE10      30.08R                  
MIAMI          PTSUNNY   85  74  69 E12       30.07R                  
KEY WEST       MOSUNNY   85  78  80 E12       30.06R                  
$$
...MARINE REPORTS...
  
STATION/POSITION TIME  TEMP    WIND        PRES    WAVE   SWELL
                       AIR SEA DIR/SP/G            HT/PER HT/PER
                 (UTC) (F)     (DEG/KT/KT) (MB)    (FT/S) (FT/S)
ST AUGUSTINE FP  1300   80 84  190/  1/  2 1020.0R
20NM E CAPE CANA 1220   82 84  160/  6/  8 1019.0
120 E NEW SMYRNA 1250   84 86  170/  4/  6 1019.0R   2/ 8   2/ 8
TRIDENT PIER     1242   85 87   CALM  /  2 1018.8R
SEBASTIAN INLET  1300   82 85              1020.0
4NM E PORT CANAV 1240      86                N/A     1/ 8
6NM NE FPR INLET 1221      85                N/A     1/ 8
SETTLEMENT PT GB 1300   84     110/  7/  8 1019.3R
$$
  
 

 

Link to: East Central Florida Hourly Weather Roundup


USA.gov is the U.S. government's official web portal to all federal, state and local government web resources and services.